Fort Covington, New York, United States (12937)
Lat: 44.99N, Lon: 74.5W
Wx Zone: NYZ027
Local Info
Past Weather Observations for Thursday, October 16, 2014

NOTE: This archive is for the closest National Weather Service station to Fort Covington. Information may differ from the station used for current weather conditions.

Click here for Long-term Archive

Time Weather Temperature Dewpoint Humidity Pressure Winds Precip Visibility
23:53
Partly Cloudy
57°F / 14°C 55°F / 13°C 94% 29.59 in
(1002 mb)
S 5.8 mph
(S 9 kph)
- 10SM
22:53
Mostly Cloudy
55°F / 13°C 55°F / 13°C 100% 29.62 in
(1003 mb)
SW 6.9 mph
(SW 11 kph)
- 9SM
21:53
Partly Cloudy
57°F / 14°C 57°F / 14°C 100% 29.62 in
(1003 mb)
SW 5.8 mph
(SW 9 kph)
- 10SM
21:36
Mostly Cloudy
61°F / 16°C 57°F / 14°C 88% 29.62 in
(1003 mb)
SW 11.5 mph
(SW 19 kph)
- 10SM
21:22
Mostly Cloudy
61°F / 16°C 59°F / 15°C 94% 29.62 in
(1003 mb)
SW 6.9 mph
(SW 11 kph)
- 10SM
21:09
Overcast
61°F / 16°C 59°F / 15°C 94% 29.62 in
(1003 mb)
S 6.9 mph
(S 11 kph)
- 10SM
20:53
Mostly Cloudy
61°F / 16°C 59°F / 15°C 94% 29.59 in
(1002 mb)
S 3.5 mph
(S 6 kph)
- 10SM
20:48
Mostly Cloudy
61°F / 16°C 59°F / 15°C 94% 29.59 in
(1002 mb)
S 4.6 mph
(S 7 kph)
- 10SM
19:53
Mostly Cloudy
61°F / 16°C 59°F / 15°C 94% 29.59 in
(1002 mb)
SE 3.5 mph
(SE 6 kph)
- 10SM
18:53
Overcast
63°F / 17°C 61°F / 16°C 94% 29.59 in
(1002 mb)
SW 9.2 mph
(SW 15 kph)
- 10SM
18:24
Mostly Cloudy
64°F / 18°C 63°F / 17°C 94% 29.59 in
(1002 mb)
SW 6.9 mph
(SW 11 kph)
- 10SM
18:14
Mostly Cloudy
64°F / 18°C 63°F / 17°C 94% 29.59 in
(1002 mb)
SW 10.4 mph
(SW 17 kph)
- 10SM
18:07
Mostly Cloudy
64°F / 18°C 63°F / 17°C 94% 29.59 in
(1002 mb)
SSW 9.2 mph
(SSW 15 kph)
- 10SM
17:53
Overcast
64°F / 18°C 63°F / 17°C 94% 29.59 in
(1002 mb)
SW 10.4 mph
(SW 17 kph)
0.00 in
(0.00 mm)
10SM
16:53
Partly Cloudy
66°F / 19°C 63°F / 17°C 88% 29.59 in
(1002 mb)
SW 3.5 mph
(SW 6 kph)
- 10SM
15:53
Overcast
70°F / 21°C 66°F / 19°C 88% 29.59 in
(1002 mb)
SSW 3.5 mph
(SSW 6 kph)
0.01 in
(0.25 mm)
10SM
14:53
Mostly Cloudy
72°F / 22°C 68°F / 20°C 88% 29.56 in
(1001 mb)
E 8.1 mph
(E 13 kph)
0.00 in
(0.00 mm)
10SM
13:53
Mostly Cloudy
72°F / 22°C 70°F / 21°C 94% 29.62 in
(1003 mb)
NE 9.2 mph
(NE 15 kph)
- 10SM
12:53
Overcast
72°F / 22°C 70°F / 21°C 94% 29.65 in
(1004 mb)
NE 9.2 mph
(NE 15 kph)
- 10SM
12:17
Partly Cloudy
70°F / 21°C 68°F / 20°C 94% 29.65 in
(1004 mb)
E 6.9 mph
(E 11 kph)
- 10SM
11:53
Mostly Cloudy
70°F / 21°C 66°F / 19°C 88% 29.68 in
(1005 mb)
E 10.4 mph
(E 17 kph)
0.02 in
(0.51 mm)
8SM
11:20
Overcast
Light Rain
66°F / 19°C 66°F / 19°C 100% 29.68 in
(1005 mb)
ENE 9.2 mph
(ENE 15 kph)
0.02 in
(0.51 mm)
6SM
11:00
Overcast
Light Rain
66°F / 19°C 66°F / 19°C 100% 29.68 in
(1005 mb)
ENE 9.2 mph
(ENE 15 kph)
0.01 in
(0.25 mm)
5SM
10:53
Overcast
Light Rain
66°F / 19°C 66°F / 19°C 100% 29.68 in
(1005 mb)
NE 10.4 mph
(NE 17 kph)
0.05 in
(1.27 mm)
5SM
09:53
Overcast
Light Rain
66°F / 19°C 66°F / 19°C 100% 29.71 in
(1006 mb)
ENE 11.5 mph
(ENE 19 kph)
0.12 in
(3.05 mm)
5SM
09:30
Overcast
Light Rain
66°F / 19°C 66°F / 19°C 100% 29.74 in
(1007 mb)
E 6.9 mph
(E 11 kph)
0.10 in
(2.54 mm)
4SM
09:18
Overcast
Rain
66°F / 19°C 64°F / 18°C 94% 29.74 in
(1007 mb)
ENE 8.1 mph
(ENE 13 kph)
0.07 in
(1.78 mm)
2SM
08:53
Overcast
Light Rain
66°F / 19°C 64°F / 18°C 94% 29.74 in
(1007 mb)
ENE 6.9 mph
(ENE 11 kph)
0.10 in
(2.54 mm)
4SM
08:08
Overcast
Rain
64°F / 18°C 64°F / 18°C 100% 29.74 in
(1007 mb)
NE 8.1 mph
(NE 13 kph)
0.03 in
(0.76 mm)
3SM
07:53
Mostly Cloudy
Rain
64°F / 18°C 64°F / 18°C 100% 29.74 in
(1007 mb)
NE 9.2 mph
(NE 15 kph)
0.11 in
(2.79 mm)
1 3/4SM
07:43
Overcast
Heavy Rain
64°F / 18°C 64°F / 18°C 100% 29.74 in
(1007 mb)
ENE 8.1 mph
(ENE 13 kph)
0.06 in
(1.52 mm)
1 3/4SM
06:53
Overcast
64°F / 18°C 64°F / 18°C 100% 29.74 in
(1007 mb)
NE 10.4 mph
(NE 17 kph)
0.00 in
(0.00 mm)
9SM
05:53
Overcast
64°F / 18°C 64°F / 18°C 100% 29.74 in
(1007 mb)
E 4.6 mph
(E 7 kph)
- 10SM
04:53
Overcast
64°F / 18°C 64°F / 18°C 100% 29.74 in
(1007 mb)
ENE 6.9 mph
(ENE 11 kph)
- 10SM
03:53
Mostly Cloudy
64°F / 18°C 64°F / 18°C 100% 29.77 in
(1008 mb)
ENE 5.8 mph
(ENE 9 kph)
0.01 in
(0.25 mm)
10SM
02:53
Overcast
Light Rain
64°F / 18°C 64°F / 18°C 100% 29.77 in
(1008 mb)
ENE 5.8 mph
(ENE 9 kph)
0.00 in
(0.00 mm)
10SM
01:53
Partly Cloudy
64°F / 18°C 64°F / 18°C 100% 29.8 in
(1009 mb)
ENE 4.6 mph
(ENE 7 kph)
- 10SM
01:33
Mostly Cloudy
64°F / 18°C 64°F / 18°C 100% 29.8 in
(1009 mb)
E 4.6 mph
(E 7 kph)
- 10SM
00:53
Overcast
64°F / 18°C 64°F / 18°C 100% 29.8 in
(1009 mb)
ENE 5.8 mph
(ENE 9 kph)
0.01 in
(0.25 mm)
10SM
Time Weather Temperature Dewpoint Humidity Pressure Winds Precip Visibility


Weather for websites

WeatherForYou.com, LLC is not responsible for any damages or problems caused by this service. Current weather conditions are obtained from the closest station including government and personal stations which may have varying degrees of accuracy. Weather forecasts are derived from the NOAA NDFD. Like all things, this site belongs to Jesus Christ... He just trusts me to maintain it. If you have any questions or comments email webmaster@weatherforyou.com

Copyright © 2014, WeatherForYou.com LLC. All rights reserved.